• Join FlightAware (Why Join?)
  • Login
  • US Flag GB Flag 
20:29 EDT


 

Airport Tracker/Info


-or-


 

Live Flight TrackerFlight Track Log ✈ SWA862 ✈ 07-Apr-2013 ✈ KBWI - KMHT

Flight Track Log - Related Links

Times and Time Zones

All times are in EDT time to prevent confusion due to time zone crossing. See the SWA862 flight status page for this flight to view local times or setup timezone preferences in your user account.

Time Position Orientation Groundspeed Altitude Reporting Facility
EDT Latitude Longitude Course Direction KTS MPH feet Rate Location/Type
22:04 39.1100 -76.5064 110° East 211 243 6,500  Level Washington Center
22:05 39.1275 -76.3969 78° East 252 290 10,500 3,480 Climbing Washington Center
22:06 39.1492 -76.2714 77° East 320 368 13,500 2,940 Climbing Washington Center
22:07 39.1622 -76.1458 82° East 359 413 16,400 2,760 Climbing Washington Center
22:08 39.1772 -76.0067 82° East 381 438 19,100 2,580 Climbing Washington Center
22:09 39.2089 -75.8594 74° East 404 465 21,600 2,580 Climbing Washington Center
22:10 39.2947 -75.7497 45° Northeast 399 459 24,300 2,520 Climbing Washington Center
22:11 39.3803 -75.6400 45° Northeast 424 488 26,700 2,160 Climbing Washington Center
22:12 39.4697 -75.5269 44° Northeast 434 499 28,700 1,860 Climbing Washington Center
22:13 39.5614 -75.4058 46° Northeast 448 516 30,500 1,140 Climbing Washington Center
22:14 39.6694 -75.3139 33° Northeast 454 522 31,000 240 Climbing Washington Center
22:15 39.7775 -75.2244 32° Northeast 459 528 31,000  Level Washington Center
22:15 39.8181 -75.1925 31° Northeast 461 531 31,000  Level New York Center
22:16 39.9131 -75.1039 36° Northeast 476 548 31,000 960 Level New York Center
22:17 40.0247 -75.0158 31° Northeast 476 548 33,000 1,860 Climbing New York Center
22:18 40.1322 -74.9219 34° Northeast 470 541 34,800 1,560 Climbing New York Center
22:19 40.2353 -74.8331 33° Northeast 465 535 36,200 1,080 Climbing New York Center
22:20 40.3447 -74.7386 33° Northeast 465 535 37,000 300 Climbing New York Center
22:22 40.5264 -74.6297 24° Northeast 460 529 37,000  Level Boston Center
22:23 40.6461 -74.5872 15° North 440 506 37,000  Level Boston Center
22:24 40.7636 -74.5419 16° North 440 506 37,000  Level Boston Center
22:25 40.8831 -74.5017 14° North 440 506 37,000  Level Boston Center
22:26 41.0028 -74.4589 15° North 434 499 37,000  Level Boston Center
22:27 41.1222 -74.4158 15° North 439 505 37,000  Level Boston Center
22:28 41.2311 -74.3806 14° North 439 505 37,000  Level Boston Center
22:29 41.3572 -74.3261 18° North 436 502 37,000  Level Boston Center
22:30 41.4808 -74.2828 15° North 441 507 37,000 -300 Level Boston Center
22:31 41.5919 -74.2444 14° North 441 507 36,400 -840 Descending Boston Center
22:32 41.7072 -74.2003 16° North 441 507 35,400 -960 Descending Boston Center
22:33 41.8167 -74.1364 24° Northeast 431 496 34,500 -900 Descending Boston Center
22:34 41.8897 -73.9906 56° Northeast 424 488 33,600 -1,320 Descending Boston Center
22:35 41.9561 -73.8386 60° Northeast 443 510 32,000 -1,800 Descending Boston Center
22:36 42.0225 -73.6947 58° Northeast 448 516 30,000 -2,100 Descending Boston Center
22:37 42.0908 -73.5481 58° Northeast 454 522 27,900 -2,040 Descending Boston Center
22:38 42.1544 -73.4119 58° Northeast 444 511 26,000 -1,740 Descending Boston Center
22:39 42.2139 -73.2811 58° Northeast 431 496 24,500 -1,200 Descending Boston Center
22:40 42.2772 -73.1417 58° Northeast 424 488 23,600 -1,020 Descending Boston Center
22:41 42.3406 -72.9964 59° Northeast 436 502 22,500 -1,080 Descending Boston Center
22:42 42.4017 -72.8619 58° Northeast 436 502 21,500 -1,020 Descending Boston Center
22:43 42.4625 -72.7272 58° Northeast 425 489 20,500 -1,320 Descending Boston Center
22:44 42.5294 -72.5867 57° Northeast 420 483 18,900 -1,800 Descending Boston Center
22:45 42.5881 -72.4542 59° Northeast 406 467 16,900 -2,040 Descending Boston Center
22:46 42.6422 -72.3300 59° Northeast 400 460 14,900 -2,100 Descending Boston Center
22:47 42.6961 -72.2083 59° Northeast 376 433 12,700 -2,040 Descending Boston Center
22:48 42.7439 -72.0981 59° Northeast 369 425 10,900 -1,380 Descending Boston Center
22:49 42.7956 -71.9761 60° Northeast 349 402 10,000 -1,320 Descending Boston Center
22:50 42.8367 -71.8853 58° Northeast 323 372 8,300 -1,860 Descending Boston Center
22:51 42.8925 -71.7825 53° Northeast 301 346 6,300 -1,920 Descending Boston Center
22:52 42.9419 -71.7028 50° Northeast 290 334 4,500 -1,920 Descending Boston Center
22:53 43.0039 -71.6111 47° Northeast 296 341 2,500 -1,020 Descending Boston Center
22:54 43.0472 -71.5453 48° Northeast 273 314 2,500 -360 Level Boston Center
22:55 43.0194 -71.4889 124° Southeast 154 177 1,900 -600 Descending Boston Center
22:56 42.9903 -71.4694 154° Southeast 123 142 1,300 -720 Descending Boston Center
22:57 42.9547 -71.4500 158° South 123 142 500 -540 Descending Boston Center
22:58 42.9231 -71.4278 153° Southeast 128 147 300 4,260 Descending Boston Center
22:59 42.8917 -71.4058 153° Southeast 128 147 9,000 4,260 Climbing Boston Center
23:00 42.8603 -71.3864 156° South 128 147 9,000  Level Boston Center
23:01 42.8289 -71.3644 153° Southeast 128 147 9,000  Level Boston Center
23:03 42.9167 -71.4333 316° Northwest  Level FlightAware Approximate